Tracking 20623 objects as of 5-Apr-2020
HD Live streaming from Space Station
objects crossing your sky now

COSMOS 2535 DEB

Track COSMOS 2535 DEB now!
10-day predictions


NORAD ID: 44640
Int'l Code: 2019-039L
Perigee: 614.7 km
Apogee: 709.3 km
Inclination: 97.8 °
Period: 97.8 minutes
Semi major axis: 7033 km
RCS: Unknown
Launch date: July 10, 2019
Source: Commonwealth of Independent States (former USSR) (CIS)
Launch site: PLESETSK MISSILE AND SPACE COMPLEX (PKMTR)

Note: This is SATELLITE DEBRIS
aabbcc
Your satellite tracking list
Your tracking list is empty




NASA's NSSDC Master Catalog

Two Line Element Set (TLE):
1 44640U 19039L   20095.08268482 +.00000089 +00000-0 +21576-4 0  9996
2 44640 097.8449 144.8438 0067281 184.8060 175.2510 14.71937155026747
Source of the keplerian elements: AFSPC